AA9VI-10 Weather Reports


Display with metric or nautical units.
time (UTC)temp
F
wind
direction
speed
MPH
gust
MPH
rain 1hr
in
rain 24hr
in
rain mn
in
humidity
%
barometer
mb
20260901071015 77 225 1.0 3.0 0.00 0.21 0.00 85 1013.8
20260901070016 77 203 1.0 4.0 0.00 0.21 0.00 85 1013.9
20260901065016 77 225 1.0 3.0 0.00 0.21 0.00 85 1013.8
20260901064016 77 225 1.0 3.0 0.00 0.21 0.00 85 1013.9
20260901063016 77 225 1.0 2.0 0.00 0.21 0.00 85 1014.0
20260901062015 77 225 1.0 4.0 0.00 0.21 0.00 85 1014.0
20260901061015 77 203 1.0 2.0 0.00 0.21 0.00 85 1013.9
20260901060016 77 203 1.0 2.0 0.00 0.21 0.00 85 1013.8
20260901055016 77 0.0 2.0 0.00 0.21 0.00 85 1013.9
20260901054016 77 225 1.0 4.0 0.00 0.21 0.00 85 1014.0
20260901053016 77 0.0 2.0 0.00 0.21 0.00 84 1013.9
20260901052016 77 203 1.0 3.0 0.00 0.21 0.00 84 1013.9
20260901051016 77 0.0 1.0 0.00 0.21 0.00 84 1013.9
20260901050016 78 0.0 2.0 0.00 0.21 0.21 83 1013.9
20260901045017 78 0.0 1.0 0.00 0.21 0.21 83 1014.0
20260901044017 78 203 1.0 4.0 0.00 0.21 0.21 83 1014.0
20260901043016 78 225 1.0 3.0 0.00 0.21 0.21 83 1013.8
20260901042016 78 0.0 2.0 0.00 0.21 0.21 82 1013.8
20260901041017 78 203 1.0 4.0 0.00 0.21 0.21 82 1013.8
20260901040017 78 203 1.0 2.0 0.00 0.21 0.21 82 1013.8
20260901035017 78 203 1.0 3.0 0.00 0.21 0.21 82 1013.9
20260901034016 78 225 1.0 4.0 0.00 0.21 0.21 81 1014.0
20260901033016 79 203 1.0 3.0 0.00 0.21 0.21 81 1014.0
20260901032016 79 203 1.0 2.0 0.00 0.22 0.21 81 1014.1
20260901031017 79 0.0 1.0 0.00 0.23 0.21 80 1014.2
20260901030017 79 0.0 0.0 0.00 0.24 0.21 79 1014.0
20260901025017 80 0.0 1.0 0.00 0.24 0.21 78 1014.1
20260901024017 80 248 1.0 4.0 0.00 0.24 0.21 78 1014.0
20260901023016 80 225 3.0 5.0 0.00 0.24 0.21 78 1013.8
20260901022016 80 225 3.0 6.0 0.00 0.24 0.21 79 1013.9
20260901021017 80 203 3.0 6.0 0.00 0.24 0.21 79 1013.8
20260901020017 80 0.0 1.0 0.00 0.24 0.21 79 1014.4
20260901015017 80 0.0 1.0 0.00 0.26 0.21 78 1014.2
20260901014017 81 203 2.0 4.0 0.00 0.26 0.21 77 1014.1
20260901013017 81 203 1.0 3.0 0.00 0.26 0.21 77 1014.0
20260901012016 81 203 1.0 3.0 0.00 0.26 0.21 77 1013.9
20260901011016 81 203 2.0 4.0 0.00 0.26 0.21 78 1013.7
20260901010016 80 225 2.0 4.0 0.00 0.26 0.21 78 1013.6
20260901005016 80 203 1.0 3.0 0.00 0.26 0.21 79 1013.6
20260901004017 80 203 1.0 3.0 0.00 0.26 0.21 79 1013.7
20260901003017 81 203 1.0 3.0 0.00 0.26 0.21 79 1013.8
20260901002016 81 203 2.0 3.0 0.01 0.26 0.21 79 1013.8
20260901001016 81 225 2.0 4.0 0.01 0.26 0.21 78 1013.6
20260901000017 82 203 2.0 5.0 0.01 0.26 0.21 78 1013.5
20260831235016 82 225 1.0 2.0 0.01 0.27 0.21 78 1013.1
20260831234016 81 0.0 2.0 0.01 0.27 0.21 78 1013.1
20260831233016 82 225 1.0 3.0 0.01 0.27 0.21 79 1013.6
20260831232017 82 225 2.0 4.0 0.00 0.26 0.20 79 1013.9
20260831231016 82 203 2.0 5.0 0.00 0.26 0.20 80 1013.9
20260831230016 82 203 2.0 4.0 0.00 0.27 0.20 80 1013.6
20260831225017 82 225 2.0 4.0 0.00 0.27 0.20 79 1013.6
20260831224016 82 203 2.0 5.0 0.00 0.27 0.20 79 1013.4
20260831223016 82 180 1.0 5.0 0.01 0.27 0.20 80 1013.4
20260831222017 81 203 2.0 5.0 0.01 0.27 0.20 82 1013.3
20260831221017 80 225 2.0 4.0 0.01 0.27 0.20 84 1013.6
20260831220016 80 203 1.0 3.0 0.01 0.27 0.20 85 1013.5
20260831215016 80 0.0 0.0 0.01 0.27 0.20 85 1013.3
20260831214016 80 0.0 0.0 0.01 0.27 0.20 84 1013.3
20260831213017 80 0.0 1.0 0.00 0.26 0.19 82 1013.4
20260831212016 81 203 1.0 3.0 0.00 0.26 0.19 80 1013.4
20260831211016 81 203 1.0 5.0 0.00 0.26 0.19 80 1013.3
20260831210016 81 158 1.0 3.0 0.01 0.26 0.19 80 1012.7
20260831205016 80 158 1.0 4.0 0.01 0.26 0.19 81 1012.6
20260831204016 79 158 1.0 4.0 0.01 0.26 0.19 84 1013.1
20260831203017 78 0.0 1.0 0.01 0.26 0.19 85 1013.6
20260831202016 78 0.0 0.0 0.01 0.26 0.19 85 1014.2
20260831201017 78 0.0 2.0 0.01 0.26 0.19 85 1014.1
20260831200017 78 0.0 2.0 0.00 0.25 0.18 85 1013.9
20260831195016 77 0.0 2.0 0.01 0.25 0.18 84 1013.4
20260831194016 77 225 2.0 4.0 0.01 0.25 0.18 83 1013.4
20260831193017 77 203 2.0 4.0 0.01 0.25 0.18 81 1013.3
20260831192017 78 180 2.0 7.0 0.01 0.25 0.18 78 1013.4
20260831191017 79 225 1.0 3.0 0.01 0.25 0.18 77 1013.8
20260831190017 79 225 2.0 6.0 0.01 0.25 0.18 74 1013.7
20260831185017 80 225 2.0 7.0 0.00 0.24 0.17 72 1014.0
20260831184016 82 225 3.0 7.0 0.00 0.24 0.17 68 1013.7
20260831183016 84 225 4.0 11.0 0.00 0.24 0.17 61 1013.8
20260831182017 85 203 5.0 12.0 0.00 0.24 0.17 59 1013.8
20260831181016 85 180 4.0 9.0 0.00 0.24 0.17 60 1013.8
20260831180016 84 180 5.0 13.0 0.00 0.24 0.17 61 1013.8
20260831175016 84 203 4.0 10.0 0.00 0.24 0.17 61 1013.9
20260831174016 84 180 5.0 11.0 0.00 0.24 0.17 60 1014.0
20260831173016 83 225 5.0 12.0 0.00 0.24 0.17 61 1014.1
20260831172016 83 203 3.0 6.0 0.00 0.24 0.17 64 1014.3
20260831171016 82 248 4.0 13.0 0.00 0.24 0.17 64 1014.5
20260831170017 81 225 3.0 8.0 0.00 0.24 0.17 68 1014.7
20260831165016 80 203 3.0 9.0 0.00 0.24 0.17 69 1014.6
20260831164016 78 180 3.0 8.0 0.00 0.24 0.17 69 1014.5
20260831163016 77 180 3.0 4.0 0.00 0.24 0.17 72 1014.5
20260831162016 77 158 3.0 8.0 0.01 0.24 0.17 73 1014.7
20260831161016 76 158 2.0 6.0 0.01 0.24 0.17 76 1014.7
20260831160016 75 158 3.0 6.0 0.01 0.24 0.17 76 1014.7
20260831155017 75 158 2.0 4.0 0.01 0.24 0.17 78 1014.8
20260831154016 74 158 2.0 5.0 0.02 0.24 0.17 80 1014.8
20260831153016 73 180 1.0 4.0 0.02 0.24 0.17 81 1014.8
20260831152016 73 158 1.0 3.0 0.01 0.23 0.16 81 1014.9
20260831151016 73 158 1.0 4.0 0.02 0.23 0.16 81 1015.0
20260831150016 73 158 2.0 4.0 0.02 0.23 0.16 82 1015.0
20260831145016 73 180 1.0 3.0 0.03 0.23 0.16 83 1015.1
20260831144016 72 158 2.0 4.0 0.03 0.22 0.15 84 1014.9
20260831143016 72 158 1.0 3.0 0.04 0.22 0.15 84 1014.8
20260831142016 72 180 1.0 3.0 0.05 0.22 0.15 85 1014.8
20260831141016 71 158 2.0 5.0 0.06 0.21 0.14 85 1014.8
20260831140016 71 135 2.0 5.0 0.06 0.21 0.14 86 1014.7
20260831135016 70 158 2.0 4.0 0.05 0.20 0.13 87 1014.8
20260831134016 70 158 2.0 4.0 0.04 0.19 0.12 87 1015.0
20260831133016 70 0 1.0 3.0 0.03 0.18 0.11 87 1015.1
20260831132016 70 0 1.0 2.0 0.03 0.17 0.10 86 1015.4
20260831131017 70 135 1.0 3.0 0.03 0.15 0.08 85 1015.4
20260831130016 70 158 1.0 3.0 0.04 0.16 0.08 85 1015.2
20260831125016 70 0 1.0 2.0 0.08 0.16 0.08 86 1015.1
20260831124016 70 0.0 1.0 0.08 0.18 0.08 86 1015.0
20260831123016 70 0.0 1.0 0.08 0.19 0.08 86 1014.9
20260831122016 70 0 1.0 2.0 0.07 0.19 0.07 85 1014.9
20260831121016 71 0.0 1.0 0.05 0.18 0.05 83 1015.1
20260831120016 72 0.0 2.0 0.04 0.18 0.04 80 1014.8
20260831115016 73 0.0 1.0 0.00 0.15 0.00 76 1015.1
20260831114016 73 0.0 1.0 0.00 0.15 0.00 75 1015.1
20260831113016 74 0.0 2.0 0.00 0.15 0.00 74 1014.8
20260831112016 74 0.0 2.0 0.00 0.15 0.00 73 1015.0
20260831111016 74 0.0 3.0 0.00 0.15 0.00 71 1014.7
20260831110016 74 225 1.0 4.0 0.00 0.15 0.00 70 1014.0
20260831105017 75 203 3.0 7.0 0.00 0.15 0.00 70 1013.9
20260831104016 74 203 2.0 7.0 0.00 0.15 0.00 70 1013.8
20260831103016 74 225 3.0 7.0 0.00 0.15 0.00 71 1013.8
20260831102016 74 203 3.0 6.0 0.00 0.15 0.00 71 1013.8
20260831101016 74 203 3.0 8.0 0.00 0.15 0.00 73 1014.0
20260831100016 74 203 2.0 6.0 0.00 0.15 0.00 73 1013.9
20260831095016 74 225 2.0 5.0 0.00 0.15 0.00 74 1013.8
20260831094016 73 203 1.0 4.0 0.00 0.15 0.00 75 1013.8
20260831093016 73 225 2.0 5.0 0.00 0.15 0.00 76 1013.9
20260831092016 73 203 1.0 3.0 0.00 0.15 0.00 78 1013.9
20260831091016 73 225 1.0 2.0 0.00 0.15 0.00 79 1014.0
20260831090016 73 0.0 2.0 0.00 0.15 0.00 79 1014.1
20260831085016 73 0.0 1.0 0.00 0.15 0.00 79 1014.2
20260831084016 73 0.0 1.0 0.00 0.15 0.00 79 1014.2
20260831083016 73 0.0 0.0 0.00 0.15 0.00 79 1014.2
20260831082016 73 0.0 1.0 0.00 0.15 0.00 79 1014.2
20260831081016 73 0.0 0.0 0.00 0.15 0.00 79 1014.2
20260831080016 73 0.0 0.0 0.00 0.15 0.00 80 1014.2
20260831075016 73 0.0 2.0 0.00 0.15 0.00 80 1014.2
20260831074016 73 0.0 0.0 0.00 0.15 0.00 81 1014.3
20260831073016 73 0.0 1.0 0.00 0.15 0.00 81 1014.4
20260831072016 73 0.0 1.0 0.00 0.15 0.00 81 1014.7